GW3137 Weather Reports


time (UTC)temp
C
wind
direction
speed
KPH
gust
KPH
rain 1hr
cm
rain 24hr
cm
rain mn
cm
humidity
%
barometer
mb
20260504033204 23 356 3.2 11.3 0.00 0.00 0.00 49 1008.6
20260504030704 24 322 3.2 4.8 0.00 0.00 0.00 46 1008.6
20260504030204 24 341 3.2 12.9 0.00 0.00 0.00 44 1008.6
20260504023706 25 326 4.8 12.9 0.00 0.00 0.00 41 1008.5
20260504023204 26 326 1.6 14.5 0.00 0.00 0.00 40 1008.6
20260504020704 26 10 4.8 12.9 0.00 0.00 0.00 39 1008.5
20260504020204 27 9 4.8 14.5 0.00 0.00 0.00 39 1008.6
20260504013705 28 317 6.4 14.5 0.00 0.00 0.00 40 1008.7
20260504013204 28 330 4.8 14.5 0.00 0.00 0.00 39 1008.7
20260504010704 29 282 4.8 14.5 0.00 0.00 0.00 36 1008.8
20260504010204 29 304 3.2 12.9 0.00 0.00 0.00 38 1008.9
20260504003704 29 8 3.2 11.3 0.00 0.00 0.00 38 1009.0
20260504000212 28 248 4.8 0.0 0.00 0.00 0.00 37 1009.4
20260504000205 28 341 4.8 19.3 0.00 0.00 0.00 37 1009.4
20260503233704 28 343 3.2 12.9 0.00 0.00 0.00 40 1009.6
20260503230704 29 342 6.4 12.9 0.00 0.00 0.00 38 1010.0
20260503230204 29 0 3.2 19.3 0.00 0.00 0.00 39 1010.1
20260503213704 28 342 4.8 11.3 0.00 0.00 0.00 40 1010.9
20260503210204 26 268 3.2 19.3 0.00 0.00 0.00 43 1011.3
20260503203704 26 294 4.8 16.1 0.00 0.00 0.00 44 1011.6
20260503203204 26 293 4.8 19.3 0.00 0.00 0.00 44 1011.7
20260503200704 26 346 6.4 14.5 0.00 0.00 0.00 47 1012.0
20260503200205 25 307 4.8 19.3 0.00 0.00 0.00 46 1012.0
20260503193704 25 324 6.4 12.9 0.00 0.00 0.00 47 1012.4
20260503190204 23 9 4.8 19.3 0.00 0.00 0.00 53 1012.9
20260503183705 23 20 4.8 12.9 0.00 0.00 0.00 56 1013.1
20260503183205 22 332 6.4 19.3 0.00 0.00 0.00 56 1013.2
20260503180705 21 318 4.8 12.9 0.00 0.00 0.00 58 1013.3
20260503173704 20 343 4.8 11.3 0.00 0.00 0.00 60 1013.4
20260503173204 20 320 3.2 14.5 0.00 0.00 0.00 61 1013.5
20260503170704 19 34 3.2 12.9 0.00 0.00 0.00 64 1013.6
20260503170204 19 358 3.2 11.3 0.00 0.00 0.00 64 1013.7
20260503150704 15 338 0.0 0.0 0.00 0.00 0.00 79 1013.9
20260503150204 15 338 0.0 0.0 0.00 0.00 0.00 79 1014.0
20260503140204 13 77 0.0 0.0 0.00 0.00 0.00 83 1013.7
20260503130704 12 77 0.0 0.0 0.00 0.00 0.00 85 1013.8
20260503130204 12 77 0.0 0.0 0.00 0.00 0.00 84 1013.7
20260503120204 13 76 0.0 0.0 0.00 0.00 0.00 83 1013.8
20260503110704 13 81 0.0 0.0 0.00 0.00 0.00 80 1013.9
20260503110204 13 81 0.0 0.0 0.00 0.00 0.00 80 1013.9
20260503100204 15 118 0.0 4.8 0.00 0.00 0.00 75 1014.0
20260503090204 15 60 0.0 3.2 0.00 0.00 0.00 70 1014.2
20260503080703 16 57 1.6 3.2 0.00 0.00 0.00 67 1014.2
20260503080204 16 57 1.6 3.2 0.00 0.00 0.00 66 1014.1
20260503070704 17 57 1.6 4.8 0.00 0.00 0.00 61 1014.1
20260503070204 17 60 1.6 4.8 0.00 0.00 0.00 62 1014.1
20260503060204 18 89 0.0 8.0 0.00 0.00 0.00 57 1014.0
20260503053704 18 29 1.6 4.8 0.00 0.00 0.00 58 1013.8
20260503050704 19 38 1.6 4.8 0.00 0.00 0.00 53 1013.8
20260503043704 20 32 4.8 11.3 0.00 0.00 0.00 50 1013.6
20260503043204 20 27 4.8 14.5 0.00 0.00 0.00 50 1013.5
20260503040204 20 24 4.8 12.9 0.00 0.00 0.00 53 1013.4